Regional Weather Roundup
Issued by NWS Cleveland, OH

Home | Current Version | Previous Version | Graphics & Text | Print | Product List | Glossary On
Versions: 1 2 3 4 5 6 7 8 9 10 11 12 13 14 15 16 17 18 19 20 21 22 23 24 25 26 27 28 29 30 31 32 33 34 35 36 37 38 39 40 41 42 43 44 45 46 47 48 49 50
000
ASUS41 KCLE 241502
RWRCLE
OHIO REGIONAL WEATHER ROUNDUP
NATIONAL WEATHER SERVICE CLEVELAND, OH
1000 AM EST MON NOV 24 2014

NOTE: "FAIR" INDICATES FEW OR NO CLOUDS BELOW 12,000 FEET WITH NO
SIGNIFICANT WEATHER AND/OR OBSTRUCTIONS TO VISIBILITY.

OHZ001>008-015>018-024>027-034-035-043-044-241600-
   NORTHWEST OHIO

CITY           SKY/WX    TMP DP  RH WIND       PRES   REMARKS
DEFIANCE       LGT RAIN  56  51  84 S17G32    29.15R
FINDLAY        RAIN      54  49  83 SW25G39   29.21F
TOLEDO EXPRESS LGT RAIN  55  50  83 SW21G39   29.15S
TOLEDO EXEC    LGT RAIN  55  49  80 S29G43    29.18S
LIMA           CLOUDY    55  52  89 SW17      29.23S
$$

OHZ009>014-019>023-028>033-038-089-241600-
   NORTHEAST OHIO

CITY           SKY/WX    TMP DP  RH WIND       PRES   REMARKS
CLE-HOPKINS    CLOUDY    61  53  75 S26G37    29.27F
CLE-LAKEFRONT  PTSUNNY   63  53  70 S24G37    29.23F
CUY CO. ARPT   PTSUNNY   63  54  72 S20G35    29.27F
LORAIN-ELYRIA  CLOUDY    61  52  72 S22G30    29.23F
ASHTABULA      CLOUDY    61  52  72 S21G37    29.29F
AKRON-CANTON   CLOUDY    62  51  67 S26G39    29.32F
WOOSTER        CLOUDY   N/A N/A N/A S25G39    29.30F
MANSFIELD      CLOUDY    60  51  72 S28G46    29.26S
YOUNGSTOWN     PTSUNNY   62  52  69 S17G28    29.33F
$$

OHZ042-051>053-060>062-070>072-077>081-241600-
  SOUTHWEST OHIO

CITY           SKY/WX    TMP DP  RH WIND       PRES   REMARKS
CINC-COVINGTON CLOUDY    62  47  57 SW29G41   29.36R
CINC-LUNKEN    CLOUDY    63  49  60 SW31G44   29.36R
HAMILTON       LGT RAIN  60  51  72 SW22G36   29.34R
DAYTON         PTSUNNY   56  51  84 SW20G30   29.30F
WRIGHT-PAT AFB LGT RAIN  59  52  77 SW24G47   29.29R
DAYTON GENERAL LGT RAIN  60  50  69 SW23G41   29.30R
WILMINGTON     CLOUDY    61  48  62 SW30G43   29.31F
$$

OHZ036-037-039>041-045>050-054>059-063>069-073>076-082>088-241600-
  CENTRAL AND SOUTHEAST OHIO

CITY           SKY/WX    TMP DP  RH WIND       PRES   REMARKS
COLUMBUS       CLOUDY    62  48  60 S28G48    29.34R
OSU AIRPORT    CLOUDY    62  51  67 S29G41    29.30R
BOLTON FIELD   PTSUNNY   61  52  72 S26G39    29.32F
RICKENBACK AFB NOT AVBL
NEWARK         CLOUDY    62  51  67 S17G31    29.34S
MARION         CLOUDY    61  51  70 SW26G43   29.26R
LANCASTER      PTSUNNY   64  50  60 S24G35    29.36S
ZANESVILLE     CLOUDY    63  49  60 S22G38    29.38S
NEW PHILLY     MOSUNNY   65  51  60 S20G39    29.37F
$$


USA.gov is the U.S. government's official web portal to all federal, state and local government web resources and services.